Starlink 11148

operational
NORAD ID: 60044 Int'l Des: 2024-112 Owner: SPXS Country: US Constellation: starlink
LEOCIRCULAR

关于 Starlink 11148

正在加载描述...

实时位置

正在加载3D地球...

即将过境

高度历史

Altitude vs Time

uPlot chart will show altitude changes over time

两行轨道根数

1 60044U 24112G 25305.92120127 -.00000387 00000-0 16659-5 0 9994
2 60044 53.1583 176.1127 0001394 62.2236 297.8923 15.69713825 80919
Epoch: Nov 1, 2025 • Age: 52 hours

当前状态

高度 360.4 km
速度 7.69 km/s
星下点 -0.63°S, 90.5°E
发射日期 Jun 8, 2024
运行时间 1.4 years
类型 internet

技术详情

分类 Payload
质量 960.00 kg
干质量 910.00 kg
总质量 960.00 kg
长度 0.30 m
直径 4.10 m
跨度 29.00 m
形状 Box + pan
制造商 SPXS
平台类型 Starlink V2MD
阶段状态 In Orbit
所有者/国家 SPXS/US

大型星座

Loading constellations...